(°C)
(°C)
-5°
-5°
-5°
-5°
-6°
-6°
-6°
ESE
ESE
ESE
ESE
ESE
ESE
ESE
(km/h)
18-34
19-36
19-35
18-35
20-36
22-35
23-34
(mm)
0
0
0
0
0
0
1
(%)
4
5
15
38
66
80
99

Elevación del sol

/ -46.9°
sun-icon
UV 0
07:27
15:59
Creciente (71°)
12:06
21:53

METAR a Ivanka pri Dunaji (LZIB)

Hora Condiciones Temperatura/
Punto de condensación
Viento Visibilidad Tiempo Nubes Presión Cambiar Bruto
VFR 1°C / -1°C 100º 10kt 9000m - Scattered Clouds 1400ft 1006 - LZIB 090100Z 10010KT 9000 SCT014 01/M01 Q1006
VFR 1°C / -1°C 100º 12kt 9000m - Few Clouds 1500ft 1006 - LZIB 090030Z 10012KT 9000 FEW015 01/M01 Q1006
VFR 1°C / -1°C 100º 11kt 9000m - Few Clouds 1500ft 1006 - LZIB 090000Z 10011KT 9000 FEW015 01/M01 Q1006
VFR 1°C / -1°C 100º 12kt >10km - Few Clouds 1500ft 1006 - LZIB 082330Z 10012KT 9999 FEW015 01/M01 Q1006
VFR 1°C / -1°C 100º 13kt >10km - Few Clouds 1500ft 1007 - LZIB 082300Z 10013KT 9999 FEW015 01/M01 Q1007
VFR 1°C / -1°C 100º 10kt >10km - Few Clouds 1500ft 1007 - LZIB 082230Z 10010KT 9999 FEW015 01/M01 Q1007
VFR 1°C / -1°C 90º 9kt >10km - Few Clouds 1500ft 1007 - LZIB 082200Z 09009KT 9999 FEW015 01/M01 Q1007
VFR 1°C / -1°C 100º 9kt >10km - Few Clouds 1500ft 1007 - LZIB 082130Z 10009KT 9999 FEW015 01/M01 Q1007
VFR 1°C / -1°C 100º 10kt >10km - Few Clouds 1500ft 1006 - LZIB 082100Z 10010KT 9999 FEW015 01/M01 Q1006
VFR 1°C / -2°C 100º 12kt 9000m - Few Clouds 1500ft 1006 - LZIB 082030Z 10012KT 9000 FEW015 01/M02 Q1006
VFR 1°C / -2°C 110º 13kt >10km - Few Clouds 4100ft 1006 - LZIB 082000Z 11013KT 9999 FEW041 01/M02 Q1006
VFR 1°C / -2°C 100º 10kt >10km - Few Clouds 4100ft 1006 - LZIB 081930Z 10010KT 9999 FEW041 01/M02 Q1006
VFR 0°C / -2°C 110º 9kt >10km - Clouds and Visibility OK 1006 No Significant change LZIB 081900Z 11009KT CAVOK 00/M02 Q1006 NOSIG
VFR 1°C / -2°C 110º 13kt >10km - Clouds and Visibility OK 1006 No Significant change LZIB 081830Z 11013KT CAVOK 01/M02 Q1006 NOSIG
VFR 1°C / -2°C 110º 13kt >10km - Few Clouds 1000ft 1006 No Significant change LZIB 081800Z 11013KT 9999 FEW010 01/M02 Q1006 NOSIG
VFR 1°C / -2°C 120º 13kt >10km - Few Clouds 1500ft 1006 No Significant change LZIB 081730Z 12013KT 9999 FEW015 01/M02 Q1006 NOSIG
VFR 1°C / -2°C 110º 13kt >10km - Few Clouds 1500ft 1006 No Significant change LZIB 081700Z 11013KT 9999 FEW015 01/M02 Q1006 NOSIG
VFR 1°C / -2°C 110º 13kt >10km - Few Clouds 1500ft 1006 No Significant change LZIB 081630Z 11013KT 9999 FEW015 01/M02 Q1006 NOSIG
VFR 1°C / -2°C 120º 11kt >10km - Few Clouds 1500ft 1006 No Significant change LZIB 081600Z 12011KT 9999 FEW015 01/M02 Q1006 NOSIG
VFR 1°C / -1°C 100º 12kt >10km - Few Clouds 1400ft 1006 No Significant change LZIB 081530Z 10012KT 9999 FEW014 01/M01 Q1006 NOSIG
VFR 2°C / -1°C 110º 12kt >10km - Few Clouds 1300ft 1006 No Significant change LZIB 081500Z 11012KT 9999 FEW013 02/M01 Q1006 NOSIG
VFR 2°C / -1°C 100º 12kt >10km - Few Clouds 1000ft 1006 No Significant change LZIB 081430Z 10012KT 9999 FEW010 02/M01 Q1006 NOSIG
VFR 2°C / -1°C 100º 12kt >10km - Few Clouds 1000ft 1006 No Significant change LZIB 081400Z 10012KT 9999 FEW010 02/M01 Q1006 NOSIG
VFR 2°C / -1°C 110º 11kt >10km - Few Clouds 1000ft 1006 No Significant change LZIB 081330Z 11011KT 9999 FEW010 02/M01 Q1006 NOSIG

VFR

1°C / -1°C

[Más]
Viento 100º 10kt
Visibilidad 9000m
Tiempo -
Nubes Scattered Clouds 1400ft
Presión 1006
Cambiar -
Bruto LZIB 090100Z 10010KT 9000 SCT014 01/M01 Q1006

VFR

1°C / -1°C

[Más]
Viento 100º 12kt
Visibilidad 9000m
Tiempo -
Nubes Few Clouds 1500ft
Presión 1006
Cambiar -
Bruto LZIB 090030Z 10012KT 9000 FEW015 01/M01 Q1006

VFR

1°C / -1°C

[Más]
Viento 100º 11kt
Visibilidad 9000m
Tiempo -
Nubes Few Clouds 1500ft
Presión 1006
Cambiar -
Bruto LZIB 090000Z 10011KT 9000 FEW015 01/M01 Q1006

VFR

1°C / -1°C

[Más]
Viento 100º 12kt
Visibilidad >10km
Tiempo -
Nubes Few Clouds 1500ft
Presión 1006
Cambiar -
Bruto LZIB 082330Z 10012KT 9999 FEW015 01/M01 Q1006

VFR

1°C / -1°C

[Más]
Viento 100º 13kt
Visibilidad >10km
Tiempo -
Nubes Few Clouds 1500ft
Presión 1007
Cambiar -
Bruto LZIB 082300Z 10013KT 9999 FEW015 01/M01 Q1007

VFR

1°C / -1°C

[Más]
Viento 100º 10kt
Visibilidad >10km
Tiempo -
Nubes Few Clouds 1500ft
Presión 1007
Cambiar -
Bruto LZIB 082230Z 10010KT 9999 FEW015 01/M01 Q1007

VFR

1°C / -1°C

[Más]
Viento 90º 9kt
Visibilidad >10km
Tiempo -
Nubes Few Clouds 1500ft
Presión 1007
Cambiar -
Bruto LZIB 082200Z 09009KT 9999 FEW015 01/M01 Q1007

VFR

1°C / -1°C

[Más]
Viento 100º 9kt
Visibilidad >10km
Tiempo -
Nubes Few Clouds 1500ft
Presión 1007
Cambiar -
Bruto LZIB 082130Z 10009KT 9999 FEW015 01/M01 Q1007

VFR

1°C / -1°C

[Más]
Viento 100º 10kt
Visibilidad >10km
Tiempo -
Nubes Few Clouds 1500ft
Presión 1006
Cambiar -
Bruto LZIB 082100Z 10010KT 9999 FEW015 01/M01 Q1006

VFR

1°C / -2°C

[Más]
Viento 100º 12kt
Visibilidad 9000m
Tiempo -
Nubes Few Clouds 1500ft
Presión 1006
Cambiar -
Bruto LZIB 082030Z 10012KT 9000 FEW015 01/M02 Q1006

VFR

1°C / -2°C

[Más]
Viento 110º 13kt
Visibilidad >10km
Tiempo -
Nubes Few Clouds 4100ft
Presión 1006
Cambiar -
Bruto LZIB 082000Z 11013KT 9999 FEW041 01/M02 Q1006

VFR

1°C / -2°C

[Más]
Viento 100º 10kt
Visibilidad >10km
Tiempo -
Nubes Few Clouds 4100ft
Presión 1006
Cambiar -
Bruto LZIB 081930Z 10010KT 9999 FEW041 01/M02 Q1006

VFR

0°C / -2°C

[Más]
Viento 110º 9kt
Visibilidad >10km
Tiempo -
Nubes Clouds and Visibility OK
Presión 1006
Cambiar No Significant change
Bruto LZIB 081900Z 11009KT CAVOK 00/M02 Q1006 NOSIG

VFR

1°C / -2°C

[Más]
Viento 110º 13kt
Visibilidad >10km
Tiempo -
Nubes Clouds and Visibility OK
Presión 1006
Cambiar No Significant change
Bruto LZIB 081830Z 11013KT CAVOK 01/M02 Q1006 NOSIG

VFR

1°C / -2°C

[Más]
Viento 110º 13kt
Visibilidad >10km
Tiempo -
Nubes Few Clouds 1000ft
Presión 1006
Cambiar No Significant change
Bruto LZIB 081800Z 11013KT 9999 FEW010 01/M02 Q1006 NOSIG

VFR

1°C / -2°C

[Más]
Viento 120º 13kt
Visibilidad >10km
Tiempo -
Nubes Few Clouds 1500ft
Presión 1006
Cambiar No Significant change
Bruto LZIB 081730Z 12013KT 9999 FEW015 01/M02 Q1006 NOSIG

VFR

1°C / -2°C

[Más]
Viento 110º 13kt
Visibilidad >10km
Tiempo -
Nubes Few Clouds 1500ft
Presión 1006
Cambiar No Significant change
Bruto LZIB 081700Z 11013KT 9999 FEW015 01/M02 Q1006 NOSIG

VFR

1°C / -2°C

[Más]
Viento 110º 13kt
Visibilidad >10km
Tiempo -
Nubes Few Clouds 1500ft
Presión 1006
Cambiar No Significant change
Bruto LZIB 081630Z 11013KT 9999 FEW015 01/M02 Q1006 NOSIG

VFR

1°C / -2°C

[Más]
Viento 120º 11kt
Visibilidad >10km
Tiempo -
Nubes Few Clouds 1500ft
Presión 1006
Cambiar No Significant change
Bruto LZIB 081600Z 12011KT 9999 FEW015 01/M02 Q1006 NOSIG

VFR

1°C / -1°C

[Más]
Viento 100º 12kt
Visibilidad >10km
Tiempo -
Nubes Few Clouds 1400ft
Presión 1006
Cambiar No Significant change
Bruto LZIB 081530Z 10012KT 9999 FEW014 01/M01 Q1006 NOSIG

VFR

2°C / -1°C

[Más]
Viento 110º 12kt
Visibilidad >10km
Tiempo -
Nubes Few Clouds 1300ft
Presión 1006
Cambiar No Significant change
Bruto LZIB 081500Z 11012KT 9999 FEW013 02/M01 Q1006 NOSIG

VFR

2°C / -1°C

[Más]
Viento 100º 12kt
Visibilidad >10km
Tiempo -
Nubes Few Clouds 1000ft
Presión 1006
Cambiar No Significant change
Bruto LZIB 081430Z 10012KT 9999 FEW010 02/M01 Q1006 NOSIG

VFR

2°C / -1°C

[Más]
Viento 100º 12kt
Visibilidad >10km
Tiempo -
Nubes Few Clouds 1000ft
Presión 1006
Cambiar No Significant change
Bruto LZIB 081400Z 10012KT 9999 FEW010 02/M01 Q1006 NOSIG

VFR

2°C / -1°C

[Más]
Viento 110º 11kt
Visibilidad >10km
Tiempo -
Nubes Few Clouds 1000ft
Presión 1006
Cambiar No Significant change
Bruto LZIB 081330Z 11011KT 9999 FEW010 02/M01 Q1006 NOSIG

TAF a Ivanka pri Dunaji (LZIB)

From till


From till Wind 90º 10kt. Visibility 10km or more. Few Clouds 1500ft.
Temporarly from till Visibility 1400m. Snow low Drifting Snow . Broken Clouds 900ft.
Temporarly from till Visibility 997.791m. Snow . Few Clouds 200ft. Broken Clouds 400ft. Overcast 800ft.
Becoming from till Wind 30º 5kt. Visibility 1700m. Light Snow . Few Clouds 400ft. Broken Clouds 800ft. Overcast 1500ft.
With 40% probability, Temporarly from till Visibility 595.456m. Heavy Snow . Broken Clouds 200ft. Overcast 400ft.
Temporarly from till Visibility 3200m. Light Snow . Few Clouds 800ft. Broken Clouds 1800ft.
Becoming from till Wind 300º 10kt. Visibility 8000m. Light Snow . Few Clouds 1200ft.

Bruto: TAF LZIB 082300Z 0900/1000 09010KT 9999 FEW015 TEMPO 0900/0905 1400 SN DRSN BKN009 BECMG 0905/0907 03005KT 1700 -SN FEW004 BKN008 OVC015 TEMPO 0905/0916 1000 SN FEW002 BKN004 OVC008 PROB40 TEMPO 0908/0916 0600 +SN BKN002 OVC004 TEMPO 0916/0918 3200 -SN FEW008 BKN018 BECMG 0918/0920 30010KT 8000 -SN FEW012

Radar y precipitación nowcast para Ivanka pri Dunaji

llovizna
Leve
Moderado
Fuerte
Muy fuerte
Granizo

El marcador de lugar se coloca en Ivanka pri Dunaji. Esta animación muestra lo radar de precipitaciones hasta la última hora, así como la 1h previsión. Las lloviznas o las nevadas ligeras pueden ser invisibles para el radar. La intensidad de la precipitación está codificada por colores, que van del azul claro al naranja.

Imágenes actuales de satélite y lluvia para Ivanka pri Dunaji, República Eslovaca

El marcador de lugar se coloca en Ivanka pri Dunaji. [Más]

La imagen de satélite en tiempo real se aprovecha de la combinación de bandas de la luz visible y de la luz infrarrojo. Como se puede detectar cambios de temperaturas atreves de la banda infrarrojo, la imagen no está escura de noche. No obstante, la niebla y las nubes bajas son apenas visibles en las imágenes infrarrojo como las diferencias de temperaturas entre el suelo y la niebla son muy pequeñas. Por eso son casi invisibles durante la noche. Las imágenes de satélite del Meteosat (Europa) son actualizados en tiempo real cada 5 minutos. Las imágenes del GOES-16/GOES-17 (América del Norte y América del Sur) y Himawari (Asia) son actualizados cada 10 minutos.

La precipitación se estima a partir de radares y satélites. Estimaciones de precipitación de la noche de los satélites son menos precisas que durante el día. Cruces naranjas identifican lugares donde relámpagos fueron detectados (en Europa).

Copyright 2021 EUMETSAT / meteoblue. Datos de relámpagos proporcionados por nowcast.